Location: Absher
(46.5583°N, 107.9840°W)
Time: 16:39:31
(UTC+00:00)

NOAA 19 - Visible Passes

Search period start: 20 March 2023 00:00
Search period end: 30 March 2023 00:00
Orbit: 839 x 861 km, 99.1° (Epoch: 20 March)

Date Brightness Start Highest point End Pass type
(mag) Time Alt. Az. Time Alt. Az. Time Alt. Az.
20 Mar 5.6 02:12:17 10° SE 02:17:28 44° ENE 02:22:39 10° N visible
20 Mar 6.9 03:53:29 10° SSW 03:58:15 30° W 04:03:03 10° NW visible
21 Mar 5.9 02:00:36 10° SE 02:05:33 36° ENE 02:10:30 10° N visible
21 Mar 6.5 03:41:06 10° SSW 03:46:09 37° W 03:51:15 10° NNW visible
22 Mar 6.1 01:48:59 10° ESE 01:53:39 29° ENE 01:58:18 10° N visible
22 Mar 6.1 03:28:48 10° S 03:34:04 47° W 03:39:23 10° NNW visible
23 Mar 5.7 03:16:36 10° S 03:22:01 59° WSW 03:27:26 10° NNW visible
24 Mar 5.4 03:04:29 10° S 03:09:59 74° WSW 03:15:29 10° NNW visible
24 Mar 8.0 04:50:29 10° W 04:51:32 11° W 04:52:37 10° WNW visible
25 Mar 5.2 02:52:27 10° SSE 02:57:57 89° ENE 03:03:28 10° NNW visible
25 Mar 7.8 04:36:36 10° WSW 04:39:20 14° W 04:42:05 10° WNW visible
26 Mar 5.2 02:40:29 10° SSE 02:45:57 73° ENE 02:51:26 10° N visible
26 Mar 7.6 04:23:32 10° SW 04:27:09 18° W 04:30:46 10° NW visible
27 Mar 5.3 02:28:36 10° SSE 02:33:59 58° ENE 02:39:20 10° N visible
27 Mar 7.3 04:10:47 10° SW 04:14:59 22° W 04:19:12 10° NW visible
28 Mar 5.5 02:16:48 10° SE 02:22:01 47° ENE 02:27:14 10° N visible
28 Mar 7.0 03:58:13 10° SSW 04:02:51 28° W 04:07:31 10° NW visible
29 Mar 5.8 02:05:04 10° SE 02:10:05 38° ENE 02:15:05 10° N visible
29 Mar 6.6 03:45:46 10° SSW 03:50:44 35° W 03:55:43 10° NNW visible
